SYRACUSE 4B

Last updated on Tue Jun 17 2025 00:02:49 GMT+0000 (Coordinated Universal Time)

1 57214U 23093B 25167.57479369 -.00000043 00000+0 00000+0 0 9993 2 57214 0.0177 8.4425 0000069 153.4107 303.5802 1.00270645 3295
UTC large
Height (km)
Speed (km/s)
/
Latitude / Longitude
Inclination (degrees)
Orbital Period (minutes)
Azimuth
Elevation
Range (km)
Doppler Factor

Next 0 passes for location: London (51.5072 / 0.1276)

Sorry there are no passes over London.